Hourly Weather Ghazni

Today, 15 August, Saturday

Time Temperature Precipitation Wind Pressure Humidity
00:00 +26°C° 0 mm 1 mps 586 mmHg 24%
01:00 +25°C° 0 mm 1 mps 585 mmHg 32%
02:00 +24°C° 0 mm 1 mps 585 mmHg 40%
03:00 +24°C° 0 mm 1 mps 584 mmHg 42%
04:00 +23°C° 0 mm 1 mps 584 mmHg 43%
05:00 +23°C° 0 mm 1 mps 584 mmHg 47%
06:00 +24°C° 0 mm 1 mps 585 mmHg 41%
07:00 +25°C° 0 mm 1 mps 585 mmHg 34%
08:00 +25°C° 0 mm 1 mps 586 mmHg 28%
09:00 +27°C° 0 mm 1 mps 586 mmHg 26%
10:00 +28°C° 0 mm 1 mps 586 mmHg 24%
11:00 +30°C° 0 mm 1 mps 586 mmHg 23%
12:00 +31°C° 0 mm 2 mps 587 mmHg 20%
13:00 +32°C° 0 mm 2 mps 587 mmHg 17%
14:00 +35°C° 0 mm 3 mps 587 mmHg 14%
15:00 +35°C° 0 mm 3 mps 587 mmHg 13%
16:00 +36°C° 0 mm 3 mps 587 mmHg 12%
17:00 +36°C° 0 mm 3 mps 587 mmHg 11%
18:00 +35°C° 0 mm 4 mps 587 mmHg 11%
19:00 +34°C° 0 mm 4 mps 587 mmHg 11%
20:00 +32°C° 0 mm 5 mps 587 mmHg 10%
21:00 +30°C° 0 mm 4 mps 587 mmHg 16%
22:00 +29°C° 0 mm 3 mps 586 mmHg 22%
23:00 +27°C° 0 mm 3 mps 586 mmHg 28%

Tomorrow, 16 August, Sunday

Time Temperature Precipitation Wind Pressure Humidity
00:00 +26°C° 0 mm 2 mps 586 mmHg 37%
01:00 +26°C° 0 mm 2 mps 586 mmHg 46%
02:00 +25°C° 0 mm 2 mps 585 mmHg 55%
03:00 +24°C° 0 mm 2 mps 585 mmHg 57%
04:00 +24°C° 0 mm 1 mps 585 mmHg 58%
05:00 +23°C° 0 mm 1 mps 585 mmHg 60%
06:00 +24°C° 0 mm 1 mps 586 mmHg 55%
07:00 +23°C° 0 mm 0 mps 586 mmHg 51%
08:00 +24°C° 0 mm 0 mps 587 mmHg 46%
09:00 +25°C° 0 mm 0 mps 587 mmHg 41%
10:00 +29°C° 0 mm 1 mps 587 mmHg 35%
11:00 +30°C° 0 mm 1 mps 588 mmHg 29%
12:00 +31°C° 0 mm 2 mps 588 mmHg 25%
13:00 +34°C° 0 mm 2 mps 588 mmHg 21%
14:00 +35°C° 0 mm 3 mps 588 mmHg 16%
15:00 +35°C° 0 mm 3 mps 588 mmHg 16%
16:00 +36°C° 0 mm 3 mps 588 mmHg 15%
17:00 +36°C° 0 mm 3 mps 588 mmHg 14%
18:00 +35°C° 0 mm 4 mps 588 mmHg 15%
19:00 +34°C° 0 mm 4 mps 588 mmHg 15%
20:00 +33°C° 0 mm 4 mps 587 mmHg 15%
21:00 +30°C° 0 mm 4 mps 587 mmHg 17%
22:00 +29°C° 0 mm 3 mps 587 mmHg 18%
23:00 +28°C° 0 mm 2 mps 587 mmHg 19%

Day after tomorrow, 17 August, Monday

Time Temperature Precipitation Wind Pressure Humidity
00:00 +27°C° 0 mm 2 mps 587 mmHg 24%
01:00 +26°C° 0 mm 1 mps 586 mmHg 29%
02:00 +25°C° 0 mm 1 mps 586 mmHg 33%
03:00 +25°C° 0 mm 1 mps 586 mmHg 32%
04:00 +25°C° 0 mm 1 mps 586 mmHg 32%
05:00 +24°C° 0 mm 2 mps 585 mmHg 31%
06:00 +25°C° 0 mm 1 mps 586 mmHg 27%
07:00 +26°C° 0 mm 1 mps 587 mmHg 23%
08:00 +27°C° 0 mm 1 mps 587 mmHg 20%
09:00 +28°C° 0 mm 1 mps 587 mmHg 19%
10:00 +29°C° 0 mm 1 mps 588 mmHg 19%
11:00 +31°C° 0 mm 1 mps 588 mmHg 19%
12:00 +32°C° 0 mm 2 mps 588 mmHg 18%
13:00 +34°C° 0 mm 2 mps 588 mmHg 16%
14:00 +35°C° 0 mm 3 mps 588 mmHg 14%
15:00 +35°C° 0 mm 3 mps 588 mmHg 14%
16:00 +36°C° 0 mm 3 mps 587 mmHg 14%
17:00 +36°C° 0 mm 3 mps 587 mmHg 14%
18:00 +35°C° 0 mm 3 mps 587 mmHg 14%
19:00 +34°C° 0 mm 3 mps 587 mmHg 15%
20:00 +33°C° 0 mm 3 mps 587 mmHg 15%
21:00 +31°C° 0 mm 3 mps 587 mmHg 19%
22:00 +29°C° 0 mm 4 mps 587 mmHg 23%
23:00 +28°C° 0 mm 4 mps 587 mmHg 27%

18 August, Tuesday

Time Temperature Precipitation Wind Pressure Humidity
00:00 +27°C° 0 mm 3 mps 586 mmHg 33%
01:00 +26°C° 0 mm 2 mps 586 mmHg 40%
02:00 +26°C° 0 mm 1 mps 585 mmHg 46%
03:00 +25°C° 0 mm 1 mps 585 mmHg 47%
04:00 +25°C° 0 mm 1 mps 585 mmHg 48%
05:00 +24°C° 0 mm 1 mps 585 mmHg 49%
06:00 +25°C° 0 mm 1 mps 586 mmHg 46%
07:00 +26°C° 0 mm 1 mps 586 mmHg 42%
08:00 +27°C° 0 mm 1 mps 587 mmHg 38%
09:00 +28°C° 0 mm 1 mps 587 mmHg 34%
10:00 +30°C° 0 mm 1 mps 587 mmHg 30%
11:00 +31°C° 0 mm 1 mps 588 mmHg 26%
12:00 +32°C° 0 mm 2 mps 587 mmHg 22%
13:00 +35°C° 0 mm 2 mps 587 mmHg 18%
14:00 +36°C° 0 mm 3 mps 587 mmHg 14%
15:00 +36°C° 0 mm 4 mps 587 mmHg 13%
16:00 +37°C° 0 mm 5 mps 587 mmHg 12%
17:00 +37°C° 0 mm 5 mps 587 mmHg 11%
18:00 +36°C° 0 mm 6 mps 587 mmHg 11%
19:00 +34°C° 0 mm 6 mps 586 mmHg 11%
20:00 +33°C° 0 mm 6 mps 586 mmHg 11%
21:00 +30°C° 0 mm 6 mps 586 mmHg 14%
22:00 +29°C° 0 mm 5 mps 586 mmHg 17%
23:00 +28°C° 0 mm 4 mps 586 mmHg 21%

19 August, Wednesday

Time Temperature Precipitation Wind Pressure Humidity
00:00 +27°C° 0 mm 3 mps 586 mmHg 22%
01:00 +27°C° 0 mm 3 mps 585 mmHg 24%
02:00 +26°C° 0 mm 2 mps 585 mmHg 26%
03:00 +26°C° 0 mm 2 mps 585 mmHg 26%
04:00 +25°C° 0 mm 2 mps 584 mmHg 27%
05:00 +24°C° 0 mm 2 mps 584 mmHg 27%
06:00 +25°C° 0 mm 2 mps 584 mmHg 26%
07:00 +26°C° 0 mm 2 mps 585 mmHg 25%
08:00 +27°C° 0 mm 2 mps 585 mmHg 24%
09:00 +28°C° 0 mm 2 mps 586 mmHg 23%
10:00 +29°C° 0 mm 2 mps 586 mmHg 22%
11:00 +31°C° 0 mm 2 mps 586 mmHg 22%
12:00 +33°C° 0 mm 3 mps 586 mmHg 19%
13:00 +34°C° 0 mm 3 mps 586 mmHg 17%
14:00 +36°C° 0 mm 4 mps 586 mmHg 14%
15:00 +36°C° 0 mm 5 mps 586 mmHg 13%
16:00 +36°C° 0 mm 7 mps 586 mmHg 12%
17:00 +37°C° 0 mm 8 mps 585 mmHg 10%
18:00 +35°C° 0 mm 7 mps 585 mmHg 11%
19:00 +33°C° 0 mm 6 mps 585 mmHg 12%
20:00 +30°C° 0 mm 6 mps 585 mmHg 12%
21:00 +29°C° 0 mm 5 mps 585 mmHg 16%
22:00 +28°C° 0 mm 5 mps 585 mmHg 20%
23:00 +27°C° 0 mm 4 mps 585 mmHg 23%

20 August, Thursday

Time Temperature Precipitation Wind Pressure Humidity
00:00 +26°C° 0 mm 3 mps 585 mmHg 24%
01:00 +26°C° 0 mm 2 mps 584 mmHg 25%
02:00 +25°C° 0 mm 1 mps 584 mmHg 26%
03:00 +24°C° 0 mm 1 mps 584 mmHg 28%
04:00 +24°C° 0 mm 1 mps 584 mmHg 30%
05:00 +24°C° 0 mm 1 mps 584 mmHg 33%
06:00 +24°C° 0 mm 1 mps 584 mmHg 31%
07:00 +25°C° 0 mm 2 mps 584 mmHg 29%
08:00 +26°C° 0 mm 3 mps 585 mmHg 27%
09:00 +27°C° 0 mm 2 mps 585 mmHg 26%
10:00 +28°C° 0 mm 2 mps 585 mmHg 26%
11:00 +30°C° 0 mm 2 mps 586 mmHg 25%
12:00 +31°C° 0 mm 3 mps 586 mmHg 20%
13:00 +33°C° 0 mm 4 mps 586 mmHg 16%
14:00 +35°C° 0 mm 5 mps 586 mmHg 12%
15:00 +35°C° 0 mm 6 mps 586 mmHg 10%
16:00 +35°C° 0 mm 7 mps 586 mmHg 9%
17:00 +35°C° 0 mm 8 mps 586 mmHg 7%
18:00 +34°C° 0 mm 7 mps 586 mmHg 10%
19:00 +32°C° 0 mm 7 mps 586 mmHg 12%
20:00 +29°C° 0 mm 6 mps 586 mmHg 15%
21:00 +28°C° 0 mm 6 mps 586 mmHg 28%
22:00 +27°C° 0 mm 6 mps 586 mmHg 42%
23:00 +25°C° 0 mm 5 mps 586 mmHg 55%
Show more